139P/Vaisala-Oterma (2017)

Japanese version
Home page
Updated on November 13, 2016

---------------------------------------------------------------------

* Profile

* Pictures

* Orbital Elements

Epoch 2017 Nov. 23.0 TT = JDT 2458080.5
T 2017 Dec. 10.83127 TT                                 MPCW
q   3.4144134            (2000.0)            P               Q
n   0.10221914     Peri.  166.06711     +0.66537942     -0.74563629
a   4.5301707      Node   242.20789     +0.68094745     +0.62600704
e   0.2462948      Incl.    2.33292     +0.30590977     +0.22834559
P   9.64
From 302 observations 1939 Oct. 7-2016 Oct. 30, mean residual 0".8.

* Magnitudes Graph

        m1 = 11.0 + 5 log d + 10.0 log r

---------------------------------------------------------------------

The orbital elements are published on M.P.E.C. 2016-V116.
The magnitudes graphs are made with Comet for Windows.

---------------------------------------------------------------------

Copyright(C) Seiichi Yoshida (comet@aerith.net). All rights reserved.